Time,TemperatureF,DewpointF,PressureIn,WindDirection,WindDirectionDegrees,WindSpeedMPH,WindSpeedGustMPH,Humidity,HourlyPrecipIn,Conditions,Clouds,dailyrainin,SoftwareType,DateUTC
2013-03-01 00:00:00,64.2,56.8,29.88,West,275,2.0,5.0,77,0.00,,---,0.00,VWS V14.01,2013-03-01 05:00:00,
2013-03-01 00:01:00,64.2,56.8,29.88,West,275,3.0,5.0,77,0.00,,---,0.00,VWS V14.01,2013-03-01 05:01:00,
2013-03-01 00:03:00,64.2,56.8,29.88,West,275,2.0,2.0,77,0.00,,---,0.00,VWS V14.01,2013-03-01 05:03:00,
2013-03-01 00:04:00,64.2,56.8,29.88,West,275,2.0,2.0,77,0.00,,---,0.00,VWS V14.01,2013-03-01 05:04:00,
2013-03-01 00:07:00,64.0,56.7,29.88,West,275,2.0,4.0,77,0.00,,---,0.00,VWS V14.01,2013-03-01 05:07:00,
2013-03-01 00:12:00,64.0,56.3,29.88,West,276,4.0,5.0,76,0.00,,---,0.00,VWS V14.01,2013-03-01 05:12:00,
2013-03-01 00:17:00,64.0,56.3,29.88,West,276,4.0,5.0,76,0.00,,---,0.00,VWS V14.01,2013-03-01 05:17:00,
2013-03-01 00:22:00,64.0,56.3,29.88,West,276,0.0,5.0,76,0.00,,---,0.00,VWS V14.01,2013-03-01 05:22:00,
2013-03-01 00:27:00,63.9,56.2,29.88,West,276,1.0,5.0,76,0.00,,---,0.00,VWS V14.01,2013-03-01 05:27:00,
2013-03-01 00:32:00,63.9,56.2,29.87,West,276,0.0,5.0,76,0.00,,---,0.00,VWS V14.01,2013-03-01 05:32:00,
2013-03-01 00:37:00,63.9,56.2,29.87,West,276,2.0,2.0,76,0.00,,---,0.00,VWS V14.01,2013-03-01 05:37:00,
2013-03-01 00:42:00,63.9,56.2,29.87,West,276,2.0,3.0,76,0.00,,---,0.00,VWS V14.01,2013-03-01 05:42:00,
2013-03-01 00:47:00,63.9,56.2,29.87,West,276,2.0,3.0,76,0.00,,---,0.00,VWS V14.01,2013-03-01 05:47:00,
2013-03-01 00:52:00,63.7,56.0,29.87,West,276,0.0,3.0,76,0.00,,---,0.00,VWS V14.01,2013-03-01 05:52:00,
2013-03-01 00:58:00,63.7,56.0,29.87,West,276,0.0,3.0,76,0.00,,---,0.00,VWS V14.01,2013-03-01 05:58:00,
2013-03-01 01:03:00,63.7,56.0,29.86,West,276,0.0,1.0,76,0.00,,---,0.00,VWS V14.01,2013-03-01 06:03:00,
2013-03-01 01:08:00,63.7,56.4,29.86,West,276,1.0,3.0,77,0.00,,---,0.00,VWS V14.01,2013-03-01 06:08:00,
2013-03-01 01:13:00,63.5,56.2,29.86,West,276,1.0,5.0,77,0.00,,---,0.00,VWS V14.01,2013-03-01 06:13:00,
2013-03-01 01:18:00,63.5,56.2,29.86,West,276,2.0,5.0,77,0.00,,---,0.00,VWS V14.01,2013-03-01 06:18:00,
2013-03-01 01:23:00,63.5,56.2,29.86,West,276,2.0,5.0,77,0.00,,---,0.00,VWS V14.01,2013-03-01 06:23:00,
2013-03-01 01:28:00,63.5,56.2,29.86,West,276,4.0,5.0,77,0.00,,---,0.00,VWS V14.01,2013-03-01 06:28:00,
2013-03-01 01:33:00,63.4,56.4,29.86,West,276,0.0,1.0,78,0.00,,---,0.00,VWS V14.01,2013-03-01 06:33:00,
2013-03-01 01:38:00,63.4,56.4,29.86,West,276,2.0,3.0,78,0.00,,---,0.00,VWS V14.01,2013-03-01 06:38:00,
2013-03-01 01:43:00,63.4,56.4,29.86,West,276,2.0,3.0,78,0.00,,---,0.00,VWS V14.01,2013-03-01 06:43:00,
2013-03-01 01:49:00,63.4,56.8,29.86,West,276,2.0,3.0,79,0.00,,---,0.00,VWS V14.01,2013-03-01 06:49:00,
2013-03-01 01:54:00,63.2,56.6,29.86,West,276,0.0,3.0,79,0.00,,---,0.00,VWS V14.01,2013-03-01 06:54:00,
2013-03-01 01:59:00,63.2,56.6,29.86,West,276,1.0,3.0,79,0.00,,---,0.00,VWS V14.01,2013-03-01 06:59:00,
2013-03-01 02:04:00,63.2,56.6,29.86,West,276,0.0,0.0,79,0.00,,---,0.00,VWS V14.01,2013-03-01 07:04:00,
2013-03-01 02:09:00,63.2,56.6,29.86,West,276,2.0,2.0,79,0.00,,---,0.00,VWS V14.01,2013-03-01 07:09:00,
2013-03-01 02:14:00,63.1,56.8,29.86,West,276,1.0,3.0,80,0.00,,---,0.00,VWS V14.01,2013-03-01 07:14:00,
2013-03-01 02:19:00,63.1,56.8,29.85,West,276,2.0,3.0,80,0.00,,---,0.00,VWS V14.01,2013-03-01 07:19:00,
2013-03-01 02:24:00,63.1,56.8,29.85,West,276,0.0,3.0,80,0.00,,---,0.00,VWS V14.01,2013-03-01 07:24:00,
2013-03-01 02:29:00,63.1,56.8,29.85,West,276,0.0,3.0,80,0.00,,---,0.00,VWS V14.01,2013-03-01 07:29:00,
2013-03-01 02:34:00,63.1,56.8,29.85,West,276,2.0,2.0,80,0.00,,---,0.00,VWS V14.01,2013-03-01 07:34:00,
2013-03-01 02:39:00,62.9,56.6,29.85,West,276,1.0,3.0,80,0.00,,---,0.00,VWS V14.01,2013-03-01 07:39:00,
2013-03-01 02:44:00,62.9,56.6,29.85,West,276,1.0,4.0,80,0.00,,---,0.00,VWS V14.01,2013-03-01 07:44:00,
2013-03-01 02:50:00,62.9,56.6,29.85,West,276,1.0,4.0,80,0.00,,---,0.00,VWS V14.01,2013-03-01 07:50:00,
2013-03-01 02:55:00,62.9,56.6,29.85,West,276,3.0,4.0,80,0.00,,---,0.00,VWS V14.01,2013-03-01 07:55:00,
2013-03-01 03:00:00,62.7,56.5,29.85,West,276,2.0,4.0,80,0.00,,---,0.00,VWS V14.01,2013-03-01 08:00:00,
2013-03-01 03:05:00,62.9,57.3,29.85,West,276,2.0,4.0,82,0.01,,---,0.01,VWS V14.01,2013-03-01 08:05:00,
2013-03-01 03:10:00,62.9,57.7,29.85,West,276,0.0,4.0,83,0.01,,---,0.01,VWS V14.01,2013-03-01 08:10:00,
2013-03-01 03:15:00,62.7,57.8,29.85,West,276,0.0,4.0,84,0.01,,---,0.01,VWS V14.01,2013-03-01 08:15:00,
2013-03-01 03:20:00,62.6,58.0,29.85,West,276,0.0,4.0,85,0.01,,---,0.01,VWS V14.01,2013-03-01 08:20:00,
2013-03-01 03:25:00,62.4,58.2,29.85,West,276,4.0,4.0,86,0.01,,---,0.01,VWS V14.01,2013-03-01 08:25:00,
2013-03-01 03:31:00,62.3,58.4,29.85,West,276,3.0,4.0,87,0.01,,---,0.01,VWS V14.01,2013-03-01 08:31:00,
2013-03-01 03:36:00,62.1,58.2,29.85,West,276,2.0,3.0,87,0.01,,---,0.01,VWS V14.01,2013-03-01 08:36:00,
2013-03-01 03:41:00,62.1,58.5,29.85,West,276,1.0,3.0,88,0.01,,---,0.01,VWS V14.01,2013-03-01 08:41:00,
2013-03-01 03:46:00,62.1,58.5,29.85,West,276,1.0,3.0,88,0.01,,---,0.01,VWS V14.01,2013-03-01 08:46:00,
2013-03-01 03:51:00,62.0,58.7,29.85,West,276,2.0,4.0,89,0.01,,---,0.01,VWS V14.01,2013-03-01 08:51:00,
2013-03-01 03:56:00,62.0,58.7,29.85,West,276,0.0,4.0,89,0.01,,---,0.01,VWS V14.01,2013-03-01 08:56:00,
2013-03-01 04:01:00,61.8,58.5,29.85,West,276,2.0,4.0,89,0.01,,---,0.01,VWS V14.01,2013-03-01 09:01:00,
2013-03-01 04:06:00,61.8,58.8,29.85,West,276,0.0,2.0,90,0.01,,---,0.01,VWS V14.01,2013-03-01 09:06:00,
2013-03-01 04:11:00,61.8,58.8,29.85,West,276,2.0,3.0,90,0.01,,---,0.01,VWS V14.01,2013-03-01 09:11:00,
2013-03-01 04:16:00,61.8,58.8,29.86,West,276,0.0,3.0,90,0.02,,---,0.02,VWS V14.01,2013-03-01 09:16:00,
2013-03-01 04:21:00,61.6,59.0,29.86,West,276,0.0,3.0,91,0.02,,---,0.02,VWS V14.01,2013-03-01 09:21:00,
2013-03-01 04:26:00,61.6,59.0,29.86,West,276,2.0,3.0,91,0.02,,---,0.02,VWS V14.01,2013-03-01 09:26:00,
2013-03-01 04:31:00,61.6,59.3,29.86,West,276,2.0,3.0,92,0.02,,---,0.02,VWS V14.01,2013-03-01 09:31:00,
2013-03-01 04:36:00,61.5,59.2,29.86,West,276,1.0,4.0,92,0.01,,---,0.02,VWS V14.01,2013-03-01 09:36:00,
2013-03-01 04:42:00,61.5,59.2,29.86,West,276,0.0,4.0,92,0.01,,---,0.02,VWS V14.01,2013-03-01 09:42:00,
2013-03-01 04:47:00,61.5,59.2,29.86,West,276,0.0,4.0,92,0.01,,---,0.02,VWS V14.01,2013-03-01 09:47:00,
2013-03-01 04:52:00,61.3,59.3,29.86,West,276,0.0,4.0,93,0.01,,---,0.02,VWS V14.01,2013-03-01 09:52:00,
2013-03-01 04:57:00,61.3,59.3,29.86,West,276,0.0,4.0,93,0.01,,---,0.02,VWS V14.01,2013-03-01 09:57:00,
2013-03-01 05:02:00,61.3,59.3,29.86,West,276,0.0,4.0,93,0.01,,---,0.02,VWS V14.01,2013-03-01 10:02:00,
2013-03-01 05:07:00,61.3,59.3,29.86,West,276,0.0,0.0,93,0.01,,---,0.02,VWS V14.01,2013-03-01 10:07:00,
2013-03-01 05:12:00,61.3,59.3,29.86,West,276,0.0,0.0,93,0.01,,---,0.02,VWS V14.01,2013-03-01 10:12:00,
2013-03-01 05:17:00,61.3,59.6,29.86,West,276,0.0,0.0,94,0.01,,---,0.02,VWS V14.01,2013-03-01 10:17:00,
2013-03-01 05:22:00,61.2,59.5,29.86,West,276,0.0,0.0,94,0.01,,---,0.02,VWS V14.01,2013-03-01 10:22:00,
2013-03-01 05:27:00,61.2,59.5,29.86,West,276,0.0,0.0,94,0.01,,---,0.02,VWS V14.01,2013-03-01 10:27:00,
2013-03-01 05:32:00,61.0,59.3,29.86,West,276,0.0,0.0,94,0.00,,---,0.02,VWS V14.01,2013-03-01 10:32:00,
2013-03-01 05:38:00,61.0,59.3,29.86,West,276,0.0,0.0,94,0.00,,---,0.02,VWS V14.01,2013-03-01 10:38:00,
2013-03-01 05:43:00,61.0,59.3,29.86,West,276,0.0,0.0,94,0.00,,---,0.02,VWS V14.01,2013-03-01 10:43:00,
2013-03-01 05:48:00,61.0,59.3,29.86,West,276,0.0,1.0,94,0.00,,---,0.02,VWS V14.01,2013-03-01 10:48:00,
2013-03-01 05:53:00,60.9,59.2,29.86,West,276,0.0,1.0,94,0.00,,---,0.02,VWS V14.01,2013-03-01 10:53:00,
2013-03-01 05:58:00,60.9,59.2,29.86,West,276,0.0,2.0,94,0.00,,---,0.02,VWS V14.01,2013-03-01 10:58:00,
2013-03-01 06:03:00,60.9,59.2,29.86,West,276,1.0,1.0,94,0.00,,---,0.02,VWS V14.01,2013-03-01 11:03:00,
2013-03-01 06:08:00,60.7,59.0,29.86,West,276,0.0,2.0,94,0.00,,---,0.02,VWS V14.01,2013-03-01 11:08:00,
2013-03-01 06:13:00,60.7,59.0,29.86,West,276,0.0,2.0,94,0.00,,---,0.02,VWS V14.01,2013-03-01 11:13:00,
2013-03-01 06:19:00,60.5,58.8,29.86,West,276,1.0,2.0,94,0.00,,---,0.02,VWS V14.01,2013-03-01 11:19:00,
2013-03-01 06:24:00,60.5,58.8,29.86,West,276,0.0,3.0,94,0.00,,---,0.02,VWS V14.01,2013-03-01 11:24:00,
2013-03-01 06:29:00,60.4,58.7,29.86,West,276,1.0,3.0,94,0.00,,---,0.02,VWS V14.01,2013-03-01 11:29:00,
2013-03-01 06:34:00,60.4,58.7,29.87,West,276,0.0,2.0,94,0.00,,---,0.02,VWS V14.01,2013-03-01 11:34:00,
2013-03-01 06:39:00,60.4,58.7,29.87,West,277,2.0,5.0,94,0.00,,---,0.02,VWS V14.01,2013-03-01 11:39:00,
2013-03-01 06:44:00,60.4,58.7,29.87,West,277,4.0,5.0,94,0.00,,---,0.02,VWS V14.01,2013-03-01 11:44:00,
2013-03-01 06:49:00,60.4,58.7,29.87,West,277,1.0,5.0,94,0.00,,---,0.02,VWS V14.01,2013-03-01 11:49:00,
2013-03-01 06:54:00,60.4,58.7,29.87,West,281,2.0,6.0,94,0.00,,---,0.02,VWS V14.01,2013-03-01 11:54:00,
2013-03-01 07:00:00,60.2,58.2,29.87,WNW,291,4.0,6.0,93,0.00,,---,0.02,VWS V14.01,2013-03-01 12:00:00,
2013-03-01 07:05:00,60.2,58.2,29.88,WNW,293,5.0,5.0,93,0.00,,---,0.02,VWS V14.01,2013-03-01 12:05:00,
2013-03-01 07:10:00,59.9,57.3,29.88,WNW,295,4.0,5.0,91,0.00,,---,0.02,VWS V14.01,2013-03-01 12:10:00,
2013-03-01 07:15:00,59.8,56.9,29.88,WNW,295,3.0,5.0,90,0.00,,---,0.02,VWS V14.01,2013-03-01 12:15:00,
2013-03-01 07:20:00,59.8,56.6,29.88,WNW,295,1.0,5.0,89,0.00,,---,0.02,VWS V14.01,2013-03-01 12:20:00,
2013-03-01 07:25:00,59.9,56.7,29.88,WNW,295,0.0,5.0,89,0.00,,---,0.02,VWS V14.01,2013-03-01 12:25:00,
2013-03-01 07:30:00,59.9,56.3,29.88,WNW,295,1.0,5.0,88,0.00,,---,0.02,VWS V14.01,2013-03-01 12:30:00,
2013-03-01 07:35:00,60.1,56.5,29.89,WNW,296,2.0,5.0,88,0.00,,---,0.02,VWS V14.01,2013-03-01 12:35:00,
2013-03-01 07:40:00,60.2,56.3,29.89,WNW,298,2.0,5.0,87,0.00,,---,0.02,VWS V14.01,2013-03-01 12:40:00,
2013-03-01 07:45:00,60.2,56.0,29.89,WNW,298,3.0,5.0,86,0.00,,---,0.02,VWS V14.01,2013-03-01 12:45:00,
2013-03-01 07:50:00,60.2,56.0,29.90,WNW,300,1.0,5.0,86,0.00,,---,0.02,VWS V14.01,2013-03-01 12:50:00,
2013-03-01 07:55:00,60.4,55.9,29.90,NW,304,4.0,6.0,85,0.00,,---,0.02,VWS V14.01,2013-03-01 12:55:00,
2013-03-01 08:00:00,60.4,55.5,29.90,NW,307,5.0,6.0,84,0.00,,---,0.02,VWS V14.01,2013-03-01 13:00:00,
2013-03-01 08:05:00,60.5,55.3,29.90,NW,307,1.0,5.0,83,0.00,,---,0.02,VWS V14.01,2013-03-01 13:05:00,
2013-03-01 08:10:00,60.5,55.3,29.90,NW,308,3.0,6.0,83,0.00,,---,0.02,VWS V14.01,2013-03-01 13:10:00,
2013-03-01 08:15:00,60.7,55.2,29.90,NW,308,4.0,6.0,82,0.00,,---,0.02,VWS V14.01,2013-03-01 13:15:00,
2013-03-01 08:20:00,60.7,54.8,29.90,NW,308,1.0,6.0,81,0.00,,---,0.02,VWS V14.01,2013-03-01 13:20:00,
2013-03-01 08:25:00,60.7,54.2,29.90,NW,312,2.0,6.0,79,0.00,,---,0.02,VWS V14.01,2013-03-01 13:25:00,
2013-03-01 08:30:00,60.9,54.3,29.90,NW,312,1.0,6.0,79,0.00,,---,0.02,VWS V14.01,2013-03-01 13:30:00,
2013-03-01 08:36:00,61.0,54.1,29.90,NW,312,0.0,5.0,78,0.00,,---,0.02,VWS V14.01,2013-03-01 13:36:00,
2013-03-01 08:41:00,61.2,54.3,29.90,NW,312,3.0,5.0,78,0.00,,---,0.02,VWS V14.01,2013-03-01 13:41:00,
2013-03-01 08:46:00,61.3,54.0,29.90,NW,314,3.0,5.0,77,0.00,,---,0.02,VWS V14.01,2013-03-01 13:46:00,
2013-03-01 08:51:00,61.5,53.9,29.90,NW,317,1.0,6.0,76,0.00,,---,0.02,VWS V14.01,2013-03-01 13:51:00,
2013-03-01 08:56:00,61.6,54.0,29.90,NW,317,4.0,6.0,76,0.00,,---,0.02,VWS V14.01,2013-03-01 13:56:00,
2013-03-01 09:01:00,61.8,53.8,29.90,NW,317,0.0,6.0,75,0.00,,---,0.02,VWS V14.01,2013-03-01 14:01:00,
2013-03-01 09:06:00,62.0,54.0,29.90,NW,317,3.0,4.0,75,0.00,,---,0.02,VWS V14.01,2013-03-01 14:06:00,
2013-03-01 09:11:00,62.3,53.9,29.90,NW,320,3.0,5.0,74,0.00,,---,0.02,VWS V14.01,2013-03-01 14:11:00,
2013-03-01 09:16:00,62.3,53.5,29.91,NW,325,3.0,6.0,73,0.00,,---,0.02,VWS V14.01,2013-03-01 14:16:00,
2013-03-01 09:21:00,62.6,53.8,29.91,NNW,331,7.0,7.0,73,0.00,,---,0.02,VWS V14.01,2013-03-01 14:21:00,
2013-03-01 09:26:00,62.6,53.1,29.91,NNW,343,9.0,9.0,71,0.00,,---,0.02,VWS V14.01,2013-03-01 14:26:00,
2013-03-01 09:31:00,62.6,53.1,29.91,NNW,336,5.0,10.0,71,0.00,,---,0.02,VWS V14.01,2013-03-01 14:31:00,
2013-03-01 09:36:00,62.7,53.2,29.91,NNW,337,4.0,7.0,71,0.00,,---,0.02,VWS V14.01,2013-03-01 14:36:00,
2013-03-01 09:41:00,62.9,53.4,29.91,NNW,335,3.0,7.0,71,0.00,,---,0.02,VWS V14.01,2013-03-01 14:41:00,
2013-03-01 09:46:00,63.2,53.3,29.91,NNW,344,12.0,12.0,70,0.00,,---,0.02,VWS V14.01,2013-03-01 14:46:00,
2013-03-01 09:51:00,63.2,53.3,29.91,NNW,340,5.0,12.0,70,0.00,,---,0.02,VWS V14.01,2013-03-01 14:51:00,
2013-03-01 09:56:00,63.4,53.1,29.91,NNW,340,5.0,12.0,69,0.00,,---,0.02,VWS V14.01,2013-03-01 14:56:00,
2013-03-01 10:01:00,63.1,52.8,29.91,NNW,336,5.0,12.0,69,0.00,,---,0.02,VWS V14.01,2013-03-01 15:01:00,
2013-03-01 10:06:00,62.9,53.0,29.91,NNW,331,4.0,8.0,70,0.00,,---,0.02,VWS V14.01,2013-03-01 15:06:00,
2013-03-01 10:11:00,62.7,52.4,29.91,NNW,343,5.0,13.0,69,0.00,,---,0.02,VWS V14.01,2013-03-01 15:11:00,
2013-03-01 10:17:00,62.7,52.8,29.92,NNW,330,7.0,13.0,70,0.00,,---,0.02,VWS V14.01,2013-03-01 15:17:00,
2013-03-01 10:22:00,62.6,52.7,29.92,NNW,343,5.0,13.0,70,0.00,,---,0.02,VWS V14.01,2013-03-01 15:22:00,
2013-03-01 10:27:00,62.7,52.8,29.92,North,351,3.0,13.0,70,0.00,,---,0.02,VWS V14.01,2013-03-01 15:27:00,
2013-03-01 10:32:00,62.9,53.4,29.92,NNW,335,9.0,13.0,71,0.00,,---,0.02,VWS V14.01,2013-03-01 15:32:00,
2013-03-01 10:37:00,63.2,53.3,29.92,NNW,342,7.0,8.0,70,0.00,,---,0.02,VWS V14.01,2013-03-01 15:37:00,
2013-03-01 10:42:00,63.5,53.2,29.92,NNW,327,7.0,11.0,69,0.00,,---,0.02,VWS V14.01,2013-03-01 15:42:00,
2013-03-01 10:47:00,63.9,53.5,29.91,NNW,337,4.0,11.0,69,0.00,,---,0.02,VWS V14.01,2013-03-01 15:47:00,
2013-03-01 10:52:00,64.2,53.0,29.91,WNW,298,6.0,11.0,67,0.00,,---,0.02,VWS V14.01,2013-03-01 15:52:00,
2013-03-01 10:57:00,64.5,53.7,29.91,NW,315,6.0,11.0,68,0.00,,---,0.02,VWS V14.01,2013-03-01 15:57:00,
2013-03-01 11:02:00,64.8,53.6,29.92,NNW,340,11.0,11.0,67,0.00,,---,0.02,VWS V14.01,2013-03-01 16:02:00,
2013-03-01 11:07:00,65.0,54.2,29.92,NNW,339,3.0,11.0,68,0.00,,---,0.02,VWS V14.01,2013-03-01 16:07:00,
2013-03-01 11:12:00,65.3,54.1,29.92,NNW,343,5.0,11.0,67,0.00,,---,0.02,VWS V14.01,2013-03-01 16:12:00,
2013-03-01 11:17:00,66.0,54.7,29.91,North,349,4.0,11.0,67,0.00,,---,0.02,VWS V14.01,2013-03-01 16:17:00,
2013-03-01 11:22:00,66.4,54.7,29.91,NNW,348,0.0,11.0,66,0.00,,---,0.02,VWS V14.01,2013-03-01 16:22:00,
2013-03-01 11:28:00,66.6,54.5,29.91,NNW,346,1.0,11.0,65,0.00,,---,0.02,VWS V14.01,2013-03-01 16:28:00,
2013-03-01 11:33:00,66.4,53.9,29.91,NNW,348,1.0,4.0,64,0.00,,---,0.02,VWS V14.01,2013-03-01 16:33:00,
2013-03-01 11:38:00,66.1,54.0,29.91,NNW,346,3.0,7.0,65,0.00,,---,0.02,VWS V14.01,2013-03-01 16:38:00,
2013-03-01 11:43:00,66.0,54.3,29.91,NNW,344,4.0,7.0,66,0.00,,---,0.02,VWS V14.01,2013-03-01 16:43:00,
2013-03-01 11:48:00,65.8,54.1,29.91,NNW,344,7.0,7.0,66,0.00,,---,0.02,VWS V14.01,2013-03-01 16:48:00,
2013-03-01 11:53:00,65.6,54.0,29.91,NNW,345,0.0,7.0,66,0.00,,---,0.02,VWS V14.01,2013-03-01 16:53:00,
2013-03-01 11:58:00,65.6,54.0,29.91,NNW,345,4.0,7.0,66,0.00,,---,0.02,VWS V14.01,2013-03-01 16:58:00,
2013-03-01 12:03:00,65.6,54.0,29.90,NNW,345,2.0,4.0,66,0.00,,---,0.02,VWS V14.01,2013-03-01 17:03:00,
2013-03-01 12:08:00,65.6,54.0,29.90,NNW,345,2.0,4.0,66,0.00,,---,0.02,VWS V14.01,2013-03-01 17:08:00,
2013-03-01 12:13:00,65.5,53.8,29.90,NNW,345,2.0,5.0,66,0.00,,---,0.02,VWS V14.01,2013-03-01 17:13:00,
2013-03-01 12:18:00,65.5,54.3,29.91,West,275,3.0,5.0,67,0.00,,---,0.02,VWS V14.01,2013-03-01 17:18:00,
2013-03-01 12:23:00,65.5,54.3,29.91,NNW,333,6.0,7.0,67,0.00,,---,0.02,VWS V14.01,2013-03-01 17:23:00,
2013-03-01 12:28:00,65.3,53.7,29.91,NNW,331,3.0,7.0,66,0.00,,---,0.02,VWS V14.01,2013-03-01 17:28:00,
2013-03-01 12:34:00,65.3,54.1,29.90,NNW,331,3.0,4.0,67,0.00,,---,0.02,VWS V14.01,2013-03-01 17:34:00,
2013-03-01 12:39:00,65.5,54.3,29.90,NNW,336,4.0,7.0,67,0.00,,---,0.02,VWS V14.01,2013-03-01 17:39:00,
2013-03-01 12:44:00,65.6,54.4,29.90,NNW,337,4.0,7.0,67,0.00,,---,0.02,VWS V14.01,2013-03-01 17:44:00,
2013-03-01 12:49:00,65.8,54.1,29.89,NW,319,4.0,7.0,66,0.00,,---,0.02,VWS V14.01,2013-03-01 17:49:00,
2013-03-01 12:54:00,65.8,53.7,29.89,NW,305,4.0,7.0,65,0.00,,---,0.02,VWS V14.01,2013-03-01 17:54:00,
2013-03-01 12:59:00,66.1,54.0,29.89,NNW,344,3.0,7.0,65,0.00,,---,0.02,VWS V14.01,2013-03-01 17:59:00,
2013-03-01 13:04:00,66.6,54.5,29.88,NNW,344,4.0,5.0,65,0.00,,---,0.02,VWS V14.01,2013-03-01 18:04:00,
2013-03-01 13:09:00,66.4,53.4,29.88,WNW,282,7.0,10.0,63,0.00,,---,0.02,VWS V14.01,2013-03-01 18:09:00,
2013-03-01 13:14:00,66.3,53.8,29.88,WNW,284,2.0,10.0,64,0.00,,---,0.02,VWS V14.01,2013-03-01 18:14:00,
2013-03-01 13:19:00,66.3,53.8,29.88,NW,321,3.0,10.0,64,0.00,,---,0.02,VWS V14.01,2013-03-01 18:19:00,
2013-03-01 13:24:00,66.3,53.3,29.88,WNW,290,5.0,10.0,63,0.00,,---,0.02,VWS V14.01,2013-03-01 18:24:00,
2013-03-01 13:29:00,66.3,53.3,29.88,West,278,9.0,12.0,63,0.00,,---,0.02,VWS V14.01,2013-03-01 18:29:00,
2013-03-01 13:34:00,66.3,52.9,29.88,NW,304,2.0,5.0,62,0.00,,---,0.02,VWS V14.01,2013-03-01 18:34:00,
2013-03-01 13:39:00,66.3,52.5,29.88,NW,304,3.0,6.0,61,0.00,,---,0.02,VWS V14.01,2013-03-01 18:39:00,
2013-03-01 13:44:00,66.1,53.2,29.88,WNW,299,6.0,8.0,63,0.00,,---,0.02,VWS V14.01,2013-03-01 18:44:00,
2013-03-01 13:49:00,65.6,52.2,29.87,WNW,284,3.0,8.0,62,0.00,,---,0.02,VWS V14.01,2013-03-01 18:49:00,
2013-03-01 13:54:00,65.3,51.5,29.87,WNW,294,3.0,8.0,61,0.00,,---,0.02,VWS V14.01,2013-03-01 18:54:00,
2013-03-01 13:59:00,65.2,52.3,29.87,WNW,302,3.0,8.0,63,0.00,,---,0.02,VWS V14.01,2013-03-01 18:59:00,
2013-03-01 14:05:00,65.0,51.7,29.86,WNW,300,2.0,7.0,62,0.00,,---,0.02,VWS V14.01,2013-03-01 19:05:00,
2013-03-01 14:10:00,65.0,52.1,29.86,WNW,301,3.0,7.0,63,0.00,,---,0.02,VWS V14.01,2013-03-01 19:10:00,
2013-03-01 14:15:00,64.8,52.3,29.86,NW,305,5.0,7.0,64,0.00,,---,0.02,VWS V14.01,2013-03-01 19:15:00,
2013-03-01 14:20:00,64.8,52.8,29.85,WNW,301,3.0,7.0,65,0.00,,---,0.02,VWS V14.01,2013-03-01 19:20:00,
2013-03-01 14:25:00,64.7,53.1,29.85,WNW,299,5.0,7.0,66,0.00,,---,0.02,VWS V14.01,2013-03-01 19:25:00,
2013-03-01 14:30:00,64.3,53.1,29.85,WNW,284,3.0,7.0,67,0.00,,---,0.02,VWS V14.01,2013-03-01 19:30:00,
2013-03-01 14:35:00,64.3,52.7,29.85,WNW,286,4.0,7.0,66,0.00,,---,0.02,VWS V14.01,2013-03-01 19:35:00,
2013-03-01 14:40:00,64.2,52.6,29.85,WNW,286,3.0,7.0,66,0.00,,---,0.02,VWS V14.01,2013-03-01 19:40:00,
2013-03-01 14:45:00,64.3,52.7,29.85,WNW,293,6.0,7.0,66,0.00,,---,0.02,VWS V14.01,2013-03-01 19:45:00,
2013-03-01 14:50:00,64.3,53.1,29.85,WNW,293,1.0,7.0,67,0.00,,---,0.02,VWS V14.01,2013-03-01 19:50:00,
2013-03-01 14:55:00,64.3,53.1,29.85,WNW,294,7.0,7.0,67,0.00,,---,0.02,VWS V14.01,2013-03-01 19:55:00,
2013-03-01 15:00:00,64.2,53.0,29.85,WNW,294,4.0,7.0,67,0.00,,---,0.02,VWS V14.01,2013-03-01 20:00:00,
2013-03-01 15:05:00,64.2,53.0,29.85,WNW,294,2.0,4.0,67,0.00,,---,0.02,VWS V14.01,2013-03-01 20:05:00,
2013-03-01 15:10:00,64.3,53.5,29.85,NNW,336,4.0,7.0,68,0.00,,---,0.02,VWS V14.01,2013-03-01 20:10:00,
2013-03-01 15:15:00,64.3,52.7,29.85,NW,311,3.0,7.0,66,0.00,,---,0.02,VWS V14.01,2013-03-01 20:15:00,
2013-03-01 15:20:00,64.2,53.0,29.84,NW,317,6.0,7.0,67,0.00,,---,0.02,VWS V14.01,2013-03-01 20:20:00,
2013-03-01 15:25:00,64.0,52.8,29.84,NW,305,3.0,7.0,67,0.00,,---,0.02,VWS V14.01,2013-03-01 20:25:00,
2013-03-01 15:30:00,63.9,52.7,29.84,WNW,294,2.0,7.0,67,0.00,,---,0.02,VWS V14.01,2013-03-01 20:30:00,
2013-03-01 15:35:00,63.7,52.5,29.85,WNW,294,9.0,9.0,67,0.00,,---,0.02,VWS V14.01,2013-03-01 20:35:00,
2013-03-01 15:41:00,63.5,52.0,29.85,NNW,348,10.0,10.0,66,0.00,,---,0.02,VWS V14.01,2013-03-01 20:41:00,
2013-03-01 15:46:00,63.5,52.0,29.85,NNW,333,4.0,10.0,66,0.00,,---,0.02,VWS V14.01,2013-03-01 20:46:00,
2013-03-01 15:51:00,63.5,52.0,29.85,NNW,327,5.0,10.0,66,0.00,,---,0.02,VWS V14.01,2013-03-01 20:51:00,
2013-03-01 15:56:00,63.5,52.0,29.85,NW,318,4.0,10.0,66,0.00,,---,0.02,VWS V14.01,2013-03-01 20:56:00,
2013-03-01 16:01:00,63.4,51.9,29.85,NW,319,2.0,10.0,66,0.00,,---,0.02,VWS V14.01,2013-03-01 21:01:00,
2013-03-01 16:06:00,63.2,51.2,29.85,NW,312,4.0,5.0,65,0.00,,---,0.02,VWS V14.01,2013-03-01 21:06:00,
2013-03-01 16:11:00,62.9,50.5,29.85,WNW,294,4.0,8.0,64,0.00,,---,0.02,VWS V14.01,2013-03-01 21:11:00,
2013-03-01 16:16:00,62.7,50.8,29.86,WNW,294,7.0,8.0,65,0.00,,---,0.02,VWS V14.01,2013-03-01 21:16:00,
2013-03-01 16:21:00,62.6,51.1,29.86,WNW,288,2.0,8.0,66,0.00,,---,0.02,VWS V14.01,2013-03-01 21:21:00,
2013-03-01 16:26:00,62.7,51.2,29.86,WNW,288,3.0,8.0,66,0.00,,---,0.02,VWS V14.01,2013-03-01 21:26:00,
2013-03-01 16:31:00,62.6,50.3,29.86,NNW,342,4.0,10.0,64,0.00,,---,0.02,VWS V14.01,2013-03-01 21:31:00,
2013-03-01 16:36:00,62.4,49.7,29.86,NNW,340,5.0,7.0,63,0.00,,---,0.02,VWS V14.01,2013-03-01 21:36:00,
2013-03-01 16:41:00,62.4,48.8,29.86,NNW,340,4.0,7.0,61,0.00,,---,0.02,VWS V14.01,2013-03-01 21:41:00,
2013-03-01 16:46:00,62.4,49.2,29.86,NNW,338,7.0,7.0,62,0.00,,---,0.02,VWS V14.01,2013-03-01 21:46:00,
2013-03-01 16:52:00,62.3,49.1,29.86,NNW,338,4.0,7.0,62,0.00,,---,0.02,VWS V14.01,2013-03-01 21:52:00,
2013-03-01 16:57:00,62.3,49.1,29.86,NNW,340,3.0,7.0,62,0.00,,---,0.02,VWS V14.01,2013-03-01 21:57:00,
2013-03-01 17:02:00,62.1,48.9,29.86,NNW,342,5.0,7.0,62,0.00,,---,0.02,VWS V14.01,2013-03-01 22:02:00,
2013-03-01 17:07:00,62.1,48.9,29.86,NNW,341,1.0,4.0,62,0.00,,---,0.02,VWS V14.01,2013-03-01 22:07:00,
2013-03-01 17:12:00,62.1,49.4,29.86,NNW,341,3.0,4.0,63,0.00,,---,0.02,VWS V14.01,2013-03-01 22:12:00,
2013-03-01 17:17:00,62.0,48.8,29.86,NNW,341,3.0,4.0,62,0.00,,---,0.02,VWS V14.01,2013-03-01 22:17:00,
2013-03-01 17:22:00,62.0,48.8,29.86,NNW,341,2.0,4.0,62,0.00,,---,0.02,VWS V14.01,2013-03-01 22:22:00,
2013-03-01 17:27:00,61.8,49.1,29.86,NNW,336,3.0,4.0,63,0.00,,---,0.02,VWS V14.01,2013-03-01 22:27:00,
2013-03-01 17:32:00,61.8,49.1,29.87,NNW,336,3.0,5.0,63,0.00,,---,0.02,VWS V14.01,2013-03-01 22:32:00,
2013-03-01 17:37:00,61.6,49.3,29.87,NNW,336,3.0,4.0,64,0.00,,---,0.02,VWS V14.01,2013-03-01 22:37:00,
2013-03-01 17:42:00,61.6,49.3,29.87,NNW,336,1.0,4.0,64,0.00,,---,0.02,VWS V14.01,2013-03-01 22:42:00,
2013-03-01 17:47:00,61.6,49.3,29.88,NNW,336,3.0,4.0,64,0.00,,---,0.02,VWS V14.01,2013-03-01 22:47:00,
2013-03-01 17:52:00,61.6,49.3,29.88,NNW,333,2.0,4.0,64,0.00,,---,0.02,VWS V14.01,2013-03-01 22:52:00,
2013-03-01 17:57:00,61.5,49.2,29.88,NNW,333,2.0,4.0,64,0.00,,---,0.02,VWS V14.01,2013-03-01 22:57:00,
2013-03-01 18:02:00,61.5,49.6,29.88,NNW,333,1.0,1.0,65,0.00,,---,0.02,VWS V14.01,2013-03-01 23:02:00,
2013-03-01 18:07:00,61.5,49.6,29.88,NNW,333,1.0,2.0,65,0.00,,---,0.02,VWS V14.01,2013-03-01 23:07:00,
2013-03-01 18:12:00,61.5,50.0,29.88,NNW,333,3.0,4.0,66,0.00,,---,0.02,VWS V14.01,2013-03-01 23:12:00,
2013-03-01 18:18:00,61.5,50.0,29.88,NNW,332,3.0,4.0,66,0.00,,---,0.02,VWS V14.01,2013-03-01 23:18:00,
2013-03-01 18:23:00,61.5,50.0,29.88,NNW,331,3.0,4.0,66,0.00,,---,0.02,VWS V14.01,2013-03-01 23:23:00,
2013-03-01 18:28:00,61.5,50.5,29.88,NNW,331,1.0,4.0,67,0.00,,---,0.02,VWS V14.01,2013-03-01 23:28:00,
2013-03-01 18:33:00,61.5,50.5,29.89,NNW,331,4.0,4.0,67,0.00,,---,0.02,VWS V14.01,2013-03-01 23:33:00,
2013-03-01 18:38:00,61.3,50.3,29.89,NW,326,3.0,4.0,67,0.00,,---,0.02,VWS V14.01,2013-03-01 23:38:00,
2013-03-01 18:43:00,61.3,50.7,29.89,NW,326,2.0,4.0,68,0.00,,---,0.02,VWS V14.01,2013-03-01 23:43:00,
2013-03-01 18:48:00,61.3,50.7,29.90,NW,324,4.0,5.0,68,0.00,,---,0.02,VWS V14.01,2013-03-01 23:48:00,
2013-03-01 18:53:00,61.3,50.7,29.90,NW,321,3.0,6.0,68,0.00,,---,0.02,VWS V14.01,2013-03-01 23:53:00,
2013-03-01 18:58:00,61.3,51.1,29.90,NW,321,4.0,6.0,69,0.00,,---,0.02,VWS V14.01,2013-03-01 23:58:00,
2013-03-01 19:03:00,61.3,51.5,29.90,NW,321,2.0,3.0,70,0.00,,---,0.02,VWS V14.01,2013-03-02 00:03:00,
2013-03-01 19:08:00,61.3,51.5,29.90,NW,321,4.0,4.0,70,0.00,,---,0.02,VWS V14.01,2013-03-02 00:08:00,
2013-03-01 19:13:00,61.2,51.3,29.90,NW,321,1.0,5.0,70,0.00,,---,0.02,VWS V14.01,2013-03-02 00:13:00,
2013-03-01 19:18:00,61.2,51.3,29.89,NW,317,4.0,5.0,70,0.00,,---,0.02,VWS V14.01,2013-03-02 00:18:00,
2013-03-01 19:24:00,61.0,51.2,29.89,NW,316,3.0,5.0,70,0.00,,---,0.02,VWS V14.01,2013-03-02 00:24:00,
2013-03-01 19:29:00,60.9,51.1,29.89,NW,317,3.0,5.0,70,0.00,,---,0.02,VWS V14.01,2013-03-02 00:29:00,
2013-03-01 19:34:00,60.9,51.1,29.90,NW,316,4.0,5.0,70,0.00,,---,0.02,VWS V14.01,2013-03-02 00:34:00,
2013-03-01 19:39:00,60.9,51.1,29.90,NW,313,1.0,5.0,70,0.00,,---,0.02,VWS V14.01,2013-03-02 00:39:00,
2013-03-01 19:44:00,60.7,50.9,29.90,NW,312,2.0,6.0,70,0.00,,---,0.02,VWS V14.01,2013-03-02 00:44:00,
2013-03-01 19:49:00,60.7,51.2,29.90,NW,312,4.0,6.0,71,0.00,,---,0.02,VWS V14.01,2013-03-02 00:49:00,
2013-03-01 19:54:00,60.5,51.1,29.90,NW,312,3.0,6.0,71,0.00,,---,0.02,VWS V14.01,2013-03-02 00:54:00,
2013-03-01 19:59:00,60.5,50.7,29.90,NW,312,2.0,6.0,70,0.00,,---,0.02,VWS V14.01,2013-03-02 00:59:00,
2013-03-01 20:04:00,60.4,50.6,29.91,NW,311,1.0,5.0,70,0.00,,---,0.02,VWS V14.01,2013-03-02 01:04:00,
2013-03-01 20:09:00,60.2,50.0,29.91,NW,311,5.0,5.0,69,0.00,,---,0.02,VWS V14.01,2013-03-02 01:09:00,
2013-03-01 20:14:00,60.2,50.0,29.91,NW,311,3.0,5.0,69,0.00,,---,0.02,VWS V14.01,2013-03-02 01:14:00,
2013-03-01 20:19:00,60.1,49.9,29.91,NW,311,4.0,5.0,69,0.00,,---,0.02,VWS V14.01,2013-03-02 01:19:00,
2013-03-01 20:24:00,60.1,49.9,29.91,NW,311,2.0,5.0,69,0.00,,---,0.02,VWS V14.01,2013-03-02 01:24:00,
2013-03-01 20:30:00,60.1,49.9,29.91,NW,311,3.0,5.0,69,0.00,,---,0.02,VWS V14.01,2013-03-02 01:30:00,
2013-03-01 20:35:00,59.9,49.7,29.91,NW,311,4.0,4.0,69,0.00,,---,0.02,VWS V14.01,2013-03-02 01:35:00,
2013-03-01 20:40:00,59.9,49.7,29.91,NW,310,3.0,5.0,69,0.00,,---,0.02,VWS V14.01,2013-03-02 01:40:00,
2013-03-01 20:45:00,59.9,50.1,29.91,NW,309,2.0,5.0,70,0.00,,---,0.02,VWS V14.01,2013-03-02 01:45:00,
2013-03-01 20:50:00,59.8,49.6,29.91,NW,308,2.0,5.0,69,0.00,,---,0.02,VWS V14.01,2013-03-02 01:50:00,
2013-03-01 20:55:00,59.8,49.6,29.91,NW,306,2.0,6.0,69,0.00,,---,0.02,VWS V14.01,2013-03-02 01:55:00,
2013-03-01 21:00:00,59.8,49.6,29.91,WNW,303,2.0,6.0,69,0.00,,---,0.02,VWS V14.01,2013-03-02 02:00:00,
2013-03-01 21:05:00,59.6,49.4,29.92,WNW,303,3.0,4.0,69,0.00,,---,0.02,VWS V14.01,2013-03-02 02:05:00,
2013-03-01 21:10:00,59.6,49.4,29.92,WNW,303,5.0,5.0,69,0.00,,---,0.02,VWS V14.01,2013-03-02 02:10:00,
2013-03-01 21:15:00,59.6,49.8,29.92,WNW,302,3.0,6.0,70,0.00,,---,0.02,VWS V14.01,2013-03-02 02:15:00,
2013-03-01 21:20:00,59.5,49.3,29.92,WNW,302,4.0,6.0,69,0.00,,---,0.02,VWS V14.01,2013-03-02 02:20:00,
2013-03-01 21:25:00,59.3,49.1,29.92,WNW,299,2.0,12.0,69,0.00,,---,0.02,VWS V14.01,2013-03-02 02:25:00,
2013-03-01 21:30:00,59.3,49.1,29.92,WNW,298,3.0,12.0,69,0.00,,---,0.02,VWS V14.01,2013-03-02 02:30:00,
2013-03-01 21:35:00,59.3,49.1,29.92,WNW,297,5.0,5.0,69,0.00,,---,0.02,VWS V14.01,2013-03-02 02:35:00,
2013-03-01 21:40:00,59.2,49.0,29.92,WNW,300,2.0,5.0,69,0.00,,---,0.02,VWS V14.01,2013-03-02 02:40:00,
2013-03-01 21:45:00,59.2,49.0,29.92,WNW,300,4.0,5.0,69,0.00,,---,0.02,VWS V14.01,2013-03-02 02:45:00,
2013-03-01 21:50:00,59.2,49.0,29.92,WNW,300,3.0,5.0,69,0.00,,---,0.02,VWS V14.01,2013-03-02 02:50:00,
2013-03-01 21:55:00,59.0,48.9,29.92,WNW,298,3.0,5.0,69,0.00,,---,0.02,VWS V14.01,2013-03-02 02:55:00,
2013-03-01 22:01:00,59.0,48.9,29.92,WNW,298,2.0,6.0,69,0.00,,---,0.02,VWS V14.01,2013-03-02 03:01:00,
2013-03-01 22:06:00,59.0,48.9,29.93,WNW,298,3.0,6.0,69,0.00,,---,0.02,VWS V14.01,2013-03-02 03:06:00,
2013-03-01 22:11:00,59.0,48.9,29.93,WNW,296,3.0,6.0,69,0.00,,---,0.02,VWS V14.01,2013-03-02 03:11:00,
2013-03-01 22:16:00,59.0,49.2,29.93,WNW,294,2.0,6.0,70,0.00,,---,0.02,VWS V14.01,2013-03-02 03:16:00,
2013-03-01 22:21:00,58.9,49.2,29.93,WNW,296,5.0,7.0,70,0.00,,---,0.02,VWS V14.01,2013-03-02 03:21:00,
2013-03-01 22:26:00,58.9,49.2,29.93,WNW,296,3.0,7.0,70,0.00,,---,0.02,VWS V14.01,2013-03-02 03:26:00,
2013-03-01 22:31:00,58.9,49.2,29.92,WNW,294,3.0,9.0,70,0.00,,---,0.02,VWS V14.01,2013-03-02 03:31:00,
2013-03-01 22:36:00,58.7,49.3,29.92,WNW,293,4.0,4.0,71,0.00,,---,0.02,VWS V14.01,2013-03-02 03:36:00,
2013-03-01 22:41:00,58.7,49.3,29.92,WNW,293,4.0,5.0,71,0.00,,---,0.02,VWS V14.01,2013-03-02 03:41:00,
2013-03-01 22:46:00,58.6,49.2,29.93,WNW,292,4.0,9.0,71,0.00,,---,0.02,VWS V14.01,2013-03-02 03:46:00,
2013-03-01 22:51:00,58.6,49.2,29.93,WNW,292,5.0,9.0,71,0.00,,---,0.02,VWS V14.01,2013-03-02 03:51:00,
2013-03-01 22:56:00,58.6,49.6,29.93,WNW,293,3.0,9.0,72,0.00,,---,0.02,VWS V14.01,2013-03-02 03:56:00,
2013-03-01 23:02:00,58.6,49.6,29.92,WNW,292,3.0,11.0,72,0.00,,---,0.02,VWS V14.01,2013-03-02 04:02:00,
2013-03-01 23:07:00,58.4,49.4,29.92,WNW,292,2.0,4.0,72,0.00,,---,0.02,VWS V14.01,2013-03-02 04:07:00,
2013-03-01 23:12:00,58.4,49.4,29.92,WNW,293,2.0,9.0,72,0.00,,---,0.02,VWS V14.01,2013-03-02 04:12:00,
2013-03-01 23:17:00,58.4,49.4,29.91,WNW,293,3.0,9.0,72,0.00,,---,0.02,VWS V14.01,2013-03-02 04:17:00,
2013-03-01 23:22:00,58.3,49.3,29.91,WNW,292,4.0,9.0,72,0.00,,---,0.02,VWS V14.01,2013-03-02 04:22:00,
2013-03-01 23:27:00,58.3,49.3,29.91,WNW,292,1.0,9.0,72,0.00,,---,0.02,VWS V14.01,2013-03-02 04:27:00,
2013-03-01 23:32:00,58.3,49.3,29.91,WNW,292,1.0,9.0,72,0.00,,---,0.02,VWS V14.01,2013-03-02 04:32:00,
2013-03-01 23:37:00,58.1,49.5,29.91,WNW,294,3.0,7.0,73,0.00,,---,0.02,VWS V14.01,2013-03-02 04:37:00,
2013-03-01 23:42:00,58.1,49.9,29.91,WNW,294,3.0,7.0,74,0.00,,---,0.02,VWS V14.01,2013-03-02 04:42:00,
2013-03-01 23:47:00,58.0,49.8,29.91,WNW,293,1.0,7.0,74,0.00,,---,0.02,VWS V14.01,2013-03-02 04:47:00,
2013-03-01 23:52:00,58.0,49.8,29.91,WNW,293,4.0,7.0,74,0.00,,---,0.02,VWS V14.01,2013-03-02 04:52:00,
2013-03-01 23:57:00,57.8,49.6,29.91,WNW,293,2.0,7.0,74,0.00,,---,0.02,VWS V14.01,2013-03-02 04:57:00,